Location: ??
(35.4824°N, 139.4679°E)
Time: 21:05:21
(UTC+00:00)

CZ-2C R/B - Pass Details

Date: 29 October 2020
Orbit: 667 x 785 km, 98.2° (Epoch: 24 November)

Event Time Altitude Azimuth Distance (km) Brightness Sun altitude
Rises 19:48:49 0° 353° (N) 3,176 5.6 -15.4°
Reaches altitude 10° 19:51:53 10° 333° (NNW) 2,225 4.6 -14.8°
Enters shadow 19:53:34 15° 314° (NW) 1,886 4.1 -14.4°
